Location: Gwatt
(46.7204°N, 7.6223°E)
Time: 11:19:03
(UTC+00:00)

CZ-4 R/B - Pass Details

Date: 18 September 2020
Orbit: 530 x 600 km, 97.7° (Epoch: 25 October)

Event Time Altitude Azimuth Distance (km) Brightness Sun altitude
Rises 18:43:50 0° 193° (SSW) 2,835 4.9 -12.5°
Reaches altitude 10° 18:46:15 10° 205° (SSW) 1,938 4.2 -12.9°
Maximum altitude 18:49:54 28° 265° (W) 1,132 3.7 -13.5°
Drops below altitude 10° 18:53:34 10° 325° (NW) 1,943 4.9 -14.1°
Sets 18:55:59 0° 337° (NNW) 2,844 5.6 -14.5°
